Regional Weather Roundup
Issued by NWS

Home | Current Version | Previous Version | Text Only | Print | Product List | Glossary Off
Versions: 1 2 3 4 5 6 7 8 9 10 11 12 13 14 15 16 17 18 19 20 21 22 23 24 25 26 27 28 29 30 31 32 33 34 35 36 37 38 39 40 41 42 43 44 45 46 47 48 49 50

000
ASUS43 KOAX 210002
RWRNE

WEATHER ROUNDUP FOR NEBRASKA
NATIONAL WEATHER SERVICE OMAHA NE
700 PM CDT WED SEP 20 2017

NOTES: SATELLITE DATA IS BEING USED TO AUGMENT CLOUD COVER ABOVE
       12000 FEET.
       "FAIR" INDICATES FEW OR NO CLOUDS BELOW 12,000 FEET WITH NO
       SIGNIFICANT WEATHER AND/OR OBSTRUCTIONS TO VISIBILITY.


NEZ001>004-019>022-054>056-210100-
NEBRASKA PANHANDLE

CITY           SKY/WX    TMP DP  RH WIND       PRES   REMARKS
SCOTTSBLUFF    CLEAR     75  35  23 SE9       29.81S
6HR MIN TEMP:  68; 6HR MAX TEMP:  77;

ALLIANCE       CLEAR     70  36  28 SE9       29.84S
6HR MIN TEMP:  67; 6HR MAX TEMP:  73;

CHADRON        CLEAR     74  35  24 S20       29.78S
6HR MIN TEMP:  70; 6HR MAX TEMP:  78;

GORDON         FAIR      72  37  27 S9        29.83S
6HR MIN TEMP:  66; 6HR MAX TEMP:  74;

KIMBALL        CLEAR     72  31  21 SE22G28   29.87S
SIDNEY         CLEAR     72  28  19 S18G25    29.88R
6HR MIN TEMP:  66; 6HR MAX TEMP:  76;

$$

NEZ057>060-069>072-079>082-210100-
SOUTHWEST NEBRASKA

CITY           SKY/WX    TMP DP  RH WIND       PRES   REMARKS
NORTH PLATTE   CLEAR     73  42  32 E7        29.87S
6HR MIN TEMP:  71; 6HR MAX TEMP:  78;

IMPERIAL       CLEAR     75  27  17 S13       29.87F
6HR MIN TEMP:  71; 6HR MAX TEMP:  79;

LEXINGTON      CLEAR     76  39  26 SE8       29.89R
MCCOOK         CLEAR     77  35  21 SE7       29.87R
6HR MIN TEMP:  74; 6HR MAX TEMP:  81;

OGALLALA       CLEAR     76  30  18 S8        29.88R
$$

NEZ005>010-023>029-035>040-094-210100-
NORTH CENTRAL NEBRASKA

CITY           SKY/WX    TMP DP  RH WIND       PRES   REMARKS
VALENTINE      CLEAR     76  32  20 S12       29.84R
6HR MIN TEMP:  71; 6HR MAX TEMP:  78;

AINSWORTH      CLEAR     70  42  36 S5        29.87S
BROKEN BOW     CLEAR     73  41  31 SE9       29.88R
6HR MIN TEMP:  72; 6HR MAX TEMP:  78;

O`NEILL        CLEAR     72  44  35 SE3       29.88S
ORD            CLEAR     73  44  35 E3        29.87R
6HR MIN TEMP:  71; 6HR MAX TEMP:  77;

THEDFORD       CLEAR     75  36  24 S9        29.88R
$$

NEZ041-046>049-061>064-073>077-083>087-210100-
SOUTH CENTRAL NEBRASKA

CITY           SKY/WX    TMP DP  RH WIND       PRES   REMARKS
GRAND ISLAND   CLEAR     75  43  31 NE5       29.88R
6HR MIN TEMP:  73; 6HR MAX TEMP:  78;

AURORA         CLEAR     72  49  45 NE3       29.87S
HASTINGS       CLEAR     74  43  32 E6        29.88R
6HR MIN TEMP:  74; 6HR MAX TEMP:  79;

HEBRON         CLEAR     79  50  35 NE6       29.85R
HOLDREGE       CLEAR     74  40  29 E6        29.89R
KEARNEY        CLEAR     73  44  35 E7        29.89R
YORK           CLEAR     73  48  40 NE7       29.87S
$$

NEZ011>018-030>034-042>045-210100-
NORTHEAST NEBRASKA

CITY           SKY/WX    TMP DP  RH WIND       PRES   REMARKS
NORFOLK        CLEAR     71  48  43 E5        29.86S
6HR MIN TEMP:  71; 6HR MAX TEMP:  77;

ALBION         CLEAR     71  52  51 SE3       29.88S
BLAIR          CLEAR     72  53  50 N5        29.88R
COLUMBUS       CLEAR     72  50  45 E6        29.88R
FREMONT        CLEAR     74  50  42 CALM      29.88R
TEKAMAH        CLEAR     72  53  51 N3        29.87R
6HR MIN TEMP:  72; 6HR MAX TEMP:  79;

WAYNE          CLEAR     71  46  40 CALM      29.88S HAZE
$$

NEZ050>053-065>068-078-088>093-210100-
SOUTHEAST NEBRASKA

CITY           SKY/WX    TMP DP  RH WIND       PRES   REMARKS
LINCOLN        CLEAR     75  52  44 NE8       29.87R
6HR MIN TEMP:  75; 6HR MAX TEMP:  82;

OMAHA EPPLEY   CLEAR     75  52  44 N6        29.85R
6HR MIN TEMP:  75; 6HR MAX TEMP:  81;

BEATRICE       CLEAR     77  57  49 NE6       29.85S
FALLS CITY     CLEAR     80  64  58 N3        29.81S
6HR MIN TEMP:  80; 6HR MAX TEMP:  86;

NEBRASKA CITY  CLEAR     76  59  55 N6        29.85S
PLATTSMOUTH    CLEAR     75  57  52 N3        29.86R
$$

NEZ044-045-051>053-067-210100-
OMAHA AREA

CITY           SKY/WX    TMP DP  RH WIND       PRES   REMARKS
OMAHA EPPLEY   CLEAR     75  52  44 N6        29.85R
6HR MIN TEMP:  75; 6HR MAX TEMP:  81;

BLAIR          CLEAR     72  53  50 N5        29.88R
FREMONT        CLEAR     74  50  42 CALM      29.88R
MILLARD        CLEAR     77  53  44 N3        29.86S
OFFUTT AFB     CLEAR     75  54  48 N5        29.84S
PLATTSMOUTH    CLEAR     75  57  52 N3        29.86R
WAHOO          FAIR      72  54  53 NE3       29.87S
$$



USA.gov is the U.S. government's official web portal to all federal, state and local government web resources and services.